GW4019 Weather Reports


time (UTC)temp
C
wind
direction
speed
KPH
gust
KPH
rain 1hr
cm
rain 24hr
cm
rain mn
cm
humidity
%
barometer
mb
20260503223058 17 0 0.0 3.2 0.00 0.00 0.00 75 1014.0
20260503221559 16 0 0.0 6.4 0.00 0.00 0.00 78 1014.1
20260503220058 16 0 0.0 3.2 0.00 0.00 0.00 77 1014.1
20260503214557 16 0 0.0 4.8 0.00 0.00 0.00 77 1014.1
20260503213055 16 0 0.0 3.2 0.00 0.00 0.00 77 1013.9
20260503211555 16 153 0.0 4.8 0.00 0.00 0.00 77 1013.9
20260503210100 16 0 0.0 4.8 0.00 0.00 0.00 78 1014.0
20260503204558 16 0 0.0 8.0 0.00 0.00 0.00 78 1014.0
20260503203100 16 0 0.0 4.8 0.00 0.00 0.00 77 1014.0
20260503201609 16 0 0.0 3.2 0.00 0.00 0.00 78 1014.2
20260503200100 16 0 0.0 3.2 0.00 0.00 0.00 80 1014.1
20260503194601 16 0 0.0 3.2 0.00 0.00 0.00 80 1014.2
20260503193056 16 0 0.0 4.8 0.00 0.00 0.00 80 1014.2
20260503191558 15 0 0.0 4.8 0.00 0.00 0.00 83 1014.2
20260503190059 15 0 0.0 4.8 0.00 0.00 0.00 84 1014.1
20260503184558 15 0 0.0 6.4 0.00 0.00 0.00 83 1014.1
20260503183054 15 150 0.0 4.8 0.00 0.00 0.00 84 1014.1
20260503181555 15 0 0.0 6.4 0.00 0.00 0.00 84 1014.0
20260503180106 15 0 0.0 9.7 0.00 0.00 0.00 85 1014.1
20260503174559 15 172 1.6 4.8 0.00 0.00 0.00 84 1014.0
20260503173059 14 0 0.0 3.2 0.00 0.00 0.00 87 1013.8
20260503171554 13 113 0.0 3.2 0.00 0.00 0.00 90 1013.8
20260503170104 13 0 0.0 3.2 0.00 0.00 0.00 91 1013.9
20260503110108 12 0 0.0 0.0 0.00 0.00 0.00 89 1011.6
20260503081553 12 0 0.0 3.2 0.00 0.00 0.00 89 1012.7
20260503071613 12 0 0.0 0.0 0.00 0.00 0.00 89 1012.7
20260503060123 12 0 1.6 3.2 0.00 0.00 0.00 88 1013.0
20260503054601 12 329 0.0 3.2 0.00 0.00 0.00 88 1013.1
20260503053100 12 0 0.0 3.2 0.00 0.00 0.00 88 1013.3
20260503051601 12 0 0.0 3.2 0.00 0.00 0.00 88 1013.4
20260503050101 12 325 0.0 4.8 0.00 0.00 0.00 88 1013.3
20260503044604 12 0 0.0 4.8 0.00 0.00 0.00 87 1013.4
20260503043051 12 0 1.6 4.8 0.00 0.00 0.00 87 1013.2
20260503041551 12 0 0.0 4.8 0.00 0.00 0.00 87 1013.1
20260503040111 12 336 0.0 4.8 0.00 0.00 0.00 87 1013.0
20260503034553 12 329 3.2 8.0 0.00 0.00 0.00 86 1013.0
20260503033104 12 0 0.0 3.2 0.00 0.00 0.00 86 1012.9
20260503031605 12 304 1.6 4.8 0.00 0.00 0.00 86 1012.8
20260503030055 12 307 1.6 8.0 0.00 0.00 0.00 85 1012.5
20260503024557 12 296 1.6 8.0 0.00 0.00 0.00 85 1012.5
20260503023053 13 301 0.0 8.0 0.00 0.00 0.00 84 1012.3
20260503021600 13 302 3.2 11.3 0.00 0.00 0.00 84 1012.3
20260503020054 13 306 0.0 6.4 0.00 0.00 0.00 83 1012.4
20260503014607 13 0 0.0 6.4 0.00 0.00 0.00 83 1012.7
20260503013055 13 0 0.0 6.4 0.00 0.00 0.00 83 1012.7
20260503011600 13 0 0.0 8.0 0.00 0.00 0.00 83 1012.9
20260503010055 13 309 1.6 6.4 0.00 0.00 0.00 82 1012.9
20260503004555 13 327 1.6 8.0 0.00 0.00 0.00 82 1012.9
20260503003057 13 304 1.6 12.9 0.00 0.00 0.00 82 1013.0
20260503001607 14 312 3.2 11.3 0.00 0.00 0.00 81 1013.1
20260503000055 14 300 3.2 8.0 0.00 0.00 0.00 81 1013.2
20260502234556 15 297 3.2 11.3 0.00 0.00 0.00 80 1013.1
20260502233054 15 0 3.2 8.0 0.00 0.00 0.00 80 1013.2
20260502231554 15 304 0.0 6.4 0.00 0.00 0.00 80 1013.3
20260502230053 15 0 0.0 6.4 0.00 0.00 0.00 80 1013.6
20260502224554 15 336 0.0 4.8 0.00 0.00 0.00 80 1013.8